Weather in Nylga

Russia / Udmurt Republic     56°45′33″N   52°22′03″E
temp.,
°C
wind,
m/s
gust,
m/s
humid.,
%
clouds,
%
prec.,
mm/h
press.,
hPa
HPBL,
m
20 june, sun
sun2001:00+18wnw410830 0.0 1016217
04:00+17wnw410850 0.0 1018244
07:00+20nw478162 0.0 1018374
10:00+23n57593 0.0 10191132
13:00+24nnw68445 0.0 10201517
16:00+24n47490 0.0 10211413
19:00+22n35651 0.0 1020138
22:00+16ne22700 0.0 102111
21 june, mon
mon2101:00+17ese22625 0.0 102111
04:00+15sse227772 0.3 102231
07:00+15sse379079 0.8 1023162
10:00+21s466515 0.9 1022563
13:00+23s247116 0.0 1020247
16:00+28w47586 0.4 10191595
19:00+22ne227942 0.3 101941
22:00+21w228010 0.6 101911
22 june, tue
tue2201:00+19sw228944 0.4 101914
04:00+19w36927 0.4 1020102
07:00+21w37865 0.0 1020186
10:00+27wnw46594 0.0 1020657
13:00+30wnw46445 0.0 10192604
16:00+30wnw355056 0.0 10181245
19:00+25w611716 0.0 1019278
22:00+21nnw237988 0.1 101949
23 june, wed
wed2301:00+18w22790 0.0 101911
04:00+17wnw22891 0.0 102013
07:00+22wnw35785 0.0 1020180
10:00+27wnw346029 0.0 1020620
13:00+30wnw45485 0.0 10191586
16:00+30wnw355795 0.0 10181055
19:00+27ene237129 0.0 101880
22:00+18nne2290100 2.5 102116
24 june, thu
thu2401:00+17sw2295100 0.2 101915
04:00+17w229595 0.2 102017
07:00+20n228866 0.0 1020202
10:00+25wnw226970 0.0 1019598
13:00+28w2358100 0.0 1018887
16:00+30wnw2454100 0.0 10171270
19:00+27nw11735 0.0 101516
22:00+20nne599086 2.5 1017184